Regional Weather Roundup
Issued by NWS

Home | Current Version | Previous Version | Graphics & Text | Print | Product List | Glossary On
Versions: 1 2 3 4 5 6 7 8 9 10 11 12 13 14 15 16 17 18 19 20 21 22 23 24 25 26 27 28 29 30 31 32 33 34 35 36 37 38 39 40 41 42 43 44 45 46 47 48 49 50
000
ASUS43 KTOP 210759
RWRKS

WEATHER ROUNDUP FOR KANSAS
NATIONAL WEATHER SERVICE GOODLAND KS
200 AM CST SUN DEC 21 2014

NOTE:  "FAIR" INDICATES FEW OR NO CLOUDS BELOW 12,000 FEET WITH NO
SIGNIFICANT WEATHER AND/OR OBSTRUCTIONS TO VISIBILITY.

KSZ001>006-013>018-027>032-041>047-210900-
NORTHWEST KANSAS

CITY           SKY/WX    TMP DP  RH WIND       PRES   REMARKS
GOODLAND       CLOUDY    32  28  85 W3        29.89F
HAYS           PTCLDY    28  21  74 S7        29.96F
HILL CITY      MOCLDY    35  31  85 CALM      29.94F
RUSSELL        PTCLDY    33  33 100 S14       29.95F WCI  23
$$

KSZ061>065-074>080-084>089-210900-
SOUTHWEST KANSAS

CITY           SKY/WX    TMP DP  RH WIND       PRES   REMARKS
DODGE CITY     FOG       35  33  92 S17       29.96F VSB 1/4 WCI  25
ELKHART          N/A    N/A N/A N/A MISG        N/A
GARDEN CITY    CLEAR     28  28 100 S6        29.94R
GREAT BEND     MOCLDY    36  30  80 S16       29.99S WCI  26
LIBERAL        PTCLDY    34  28  80 SW7       29.96S
$$

KSZ066>073-081>083-090>101-210900-
SOUTHEAST KANSAS

CITY           SKY/WX    TMP DP  RH WIND       PRES   REMARKS
CHANUTE        CLOUDY    39  36  89 S10       30.11F WCI  32
COFFEYVILLE    CLOUDY    41  37  86 S9        30.12F
HUTCHINSON     CLOUDY    39  36  89 S10       30.03S WCI  32
MEDICINE LODGE   N/A     38  38 100 S10       30.03F WCI  31
NEWTON         CLOUDY    39  34  81 S10       30.05S WCI  32
PARSONS        CLOUDY    41  37  86 S7        30.12F
WICHITA INTL   CLOUDY    42  37  82 S16       30.05S
WICHITA JABRA  CLOUDY    41  36  82 S12       30.05S
WICHITA MCCONL CLOUDY    41  37  87 S14       30.06S
WINFIELD       CLOUDY    41  38  89 S13       30.09S
$$

KSZ007>012-019>026-033>040-048>060-102>105-210900-
NORTHEAST KANSAS

CITY           SKY/WX    TMP DP  RH WIND       PRES   REMARKS
CONCORDIA      PTCLDY    36  36 100 S12       29.97F WCI  28
EMPORIA        CLOUDY    36  34  92 S10       30.06F WCI  28
LAWRENCE       CLEAR     34  31  88 S7        30.09S
MANHATTAN      CLOUDY    42  38  85 SW13      30.03F
OLATHE IND     CLEAR     33  32  96 S8        30.09S
OLATHE EXE     CLEAR     35  33  92 S9        30.08F
SALINA         PTCLDY    37  34  89 S7        30.02F
TOPEKA BILLARD CLOUDY   N/A N/A N/A S6        30.09R
TOPEKA FORBES  CLOUDY    37  33  85 S7        30.08R
$$



USA.gov is the U.S. government's official web portal to all federal, state and local government web resources and services.